Hourly Weather Dzialki

Today, 6 May, Thursday

Time Temperature Precipitation Wind Pressure Humidity
00:00 +3°C° 0 mm 7 mps 742 mmHg 90%
01:00 +3°C° 0 mm 7 mps 742 mmHg 89%
02:00 +3°C° 0 mm 7 mps 743 mmHg 89%
03:00 +2°C° 0 mm 7 mps 743 mmHg 89%
04:00 +2°C° 0 mm 7 mps 744 mmHg 89%
05:00 +2°C° 0 mm 7 mps 744 mmHg 85%
06:00 +2°C° 0 mm 8 mps 745 mmHg 80%
07:00 +4°C° 0 mm 8 mps 746 mmHg 76%
08:00 +5°C° 0 mm 9 mps 746 mmHg 66%
09:00 +6°C° 0 mm 9 mps 746 mmHg 57%
10:00 +7°C° 0 mm 9 mps 746 mmHg 47%
11:00 +8°C° 0 mm 9 mps 746 mmHg 46%
12:00 +10°C° 0 mm 8 mps 746 mmHg 44%
13:00 +11°C° 0 mm 8 mps 746 mmHg 43%
14:00 +11°C° 0 mm 7 mps 746 mmHg 46%
15:00 +11°C° 0 mm 6 mps 745 mmHg 49%
16:00 +12°C° 0 mm 5 mps 745 mmHg 52%
17:00 +10°C° 0.1 mm 5 mps 745 mmHg 60%
18:00 +9°C° 0.1 mm 5 mps 745 mmHg 67%
19:00 +8°C° 0.1 mm 5 mps 745 mmHg 75%
20:00 +7°C° 0.1 mm 5 mps 745 mmHg 77%
21:00 +7°C° 0.1 mm 5 mps 745 mmHg 79%
22:00 +7°C° 0.1 mm 6 mps 744 mmHg 81%
23:00 +7°C° 0.2 mm 6 mps 744 mmHg 83%

Tomorrow, 7 May, Friday

Time Temperature Precipitation Wind Pressure Humidity
00:00 +6°C° 0.2 mm 7 mps 744 mmHg 86%
01:00 +6°C° 0.2 mm 7 mps 744 mmHg 88%
02:00 +6°C° 0.2 mm 7 mps 744 mmHg 89%
03:00 +5°C° 0.2 mm 6 mps 744 mmHg 90%
04:00 +6°C° 0.2 mm 5 mps 744 mmHg 90%
05:00 +6°C° 0.3 mm 5 mps 744 mmHg 91%
06:00 +6°C° 0.3 mm 4 mps 744 mmHg 92%
07:00 +6°C° 0.3 mm 4 mps 745 mmHg 92%
08:00 +6°C° 0.2 mm 4 mps 745 mmHg 90%
09:00 +6°C° 0.2 mm 4 mps 746 mmHg 87%
10:00 +6°C° 0.2 mm 4 mps 746 mmHg 85%
11:00 +7°C° 0.1 mm 5 mps 747 mmHg 77%
12:00 +8°C° 0.1 mm 5 mps 747 mmHg 69%
13:00 +9°C° 0.1 mm 5 mps 747 mmHg 61%
14:00 +10°C° 0.1 mm 5 mps 748 mmHg 59%
15:00 +10°C° 0.1 mm 5 mps 748 mmHg 58%
16:00 +10°C° 0.1 mm 5 mps 749 mmHg 56%
17:00 +8°C° 0 mm 5 mps 749 mmHg 61%
18:00 +7°C° 0 mm 4 mps 749 mmHg 67%
19:00 +7°C° 0 mm 3 mps 750 mmHg 72%
20:00 +5°C° 0 mm 3 mps 750 mmHg 75%
21:00 +4°C° 0 mm 3 mps 751 mmHg 77%
22:00 +4°C° 0 mm 3 mps 751 mmHg 80%
23:00 +3°C° 0 mm 3 mps 751 mmHg 82%

Day after tomorrow, 8 May, Saturday

Time Temperature Precipitation Wind Pressure Humidity
00:00 +3°C° 0 mm 3 mps 751 mmHg 83%
01:00 +3°C° 0 mm 3 mps 751 mmHg 85%
02:00 +3°C° 0 mm 3 mps 751 mmHg 86%
03:00 +3°C° 0 mm 3 mps 751 mmHg 86%
04:00 +3°C° 0 mm 3 mps 750 mmHg 86%
05:00 +5°C° 0 mm 3 mps 750 mmHg 84%
06:00 +6°C° 0 mm 4 mps 750 mmHg 82%
07:00 +7°C° 0 mm 4 mps 750 mmHg 80%
08:00 +7°C° 0.1 mm 4 mps 750 mmHg 82%
09:00 +7°C° 0.1 mm 4 mps 749 mmHg 84%
10:00 +7°C° 0.1 mm 4 mps 749 mmHg 86%
11:00 +7°C° 0.2 mm 4 mps 748 mmHg 87%
12:00 +7°C° 0.2 mm 5 mps 748 mmHg 88%
13:00 +7°C° 0.2 mm 5 mps 747 mmHg 89%
14:00 +10°C° 0 mm 4 mps 746 mmHg 86%
15:00 +13°C° 0 mm 4 mps 746 mmHg 82%
16:00 +16°C° 0 mm 3 mps 745 mmHg 78%
17:00 +14°C° 0 mm 3 mps 745 mmHg 81%
18:00 +14°C° 0 mm 3 mps 745 mmHg 85%
19:00 +13°C° 0 mm 3 mps 745 mmHg 88%
20:00 +13°C° 0 mm 3 mps 744 mmHg 89%
21:00 +13°C° 0 mm 4 mps 744 mmHg 89%
22:00 +13°C° 0 mm 4 mps 744 mmHg 90%
23:00 +12°C° 0 mm 4 mps 744 mmHg 90%

9 May, Sunday

Time Temperature Precipitation Wind Pressure Humidity
00:00 +12°C° 0 mm 4 mps 744 mmHg 90%
01:00 +12°C° 0 mm 4 mps 743 mmHg 91%

10 May, Monday

Time Temperature Precipitation Wind Pressure Humidity

11 May, Tuesday

Time Temperature Precipitation Wind Pressure Humidity
Show more